Вернуться в каталог

SL-16 DEB

АктивенLEO
NORAD 29098·DEBRIS·🇷🇺 Russia

Запущен Mar 26, 1993 с Baikonur Cosmodrome

Loading…

Ближайшие Пролёты (ближайшие 24 часа)

TLE

СвежийSource: Space-Track

Эпоха: Sep 14, 2026, 14:08 UTC

1 29098U 93016AM  26257.58922516  .00000250  00000-0  14135-3 0  9991
2 29098  70.9256 336.7379 0079739  61.7894   4.1605 14.17872933683465

Отслеживайте SL-16 DEB в реальном времени с AllMySat

Download on the App Store